SL-14 R/B

Satellite information

Favourite Embed

Satellite Type and Status

ROCKET BODYIN ORBIT

Key statistics

Satellite SL-14 R/B at a glance.

Uptime

16107

Days in orbit

Revolutions

≈ 13.6

Per day

Orbit

LEO

Low Earth Orbit

Inclination

82.5

Latest

Satellite identification and parameters

Extended collection of information and parameters for SL-14 R/B.

Object identification

Identified? True

Debris? False

Object name: SL-14 R/B

International designator: 1981-094B

Object number (NORAD): 12849

Object ID (CCSDS): 12849

Country: COMMONWEALTH OF INDEPENDENT STATES (CIS)

Current information (Y/N): Y

RCS size: LARGE

Orbital parameters

Period: 106.083 minutes

Inclination: 82.4902 deg

SMA: 7423.214 km

Apoapsis: 1693.507 km

Periapsis: 396.65 km

RAAN: 337.0198 deg

Eccentricy: 0.08735147

Argument of periapsis: 102.867 deg

Mean anomaly: 267.142 deg

Mean motion: 13.57421808 rev/day

Mean motion (dot): 0.00001708 rev/day2

B* drag term: 0.00014905598 1/REarth

Two-line elements (TLE)

Creation date: Oct. 26, 2025, 2:54 a.m.

Reference frame: TEME

Reference center: EARTH

Epoch: Oct. 25, 2025, 7:40 p.m. UTC

TLE line 0: 0 SL-14 R/B

TLE line 1: 1 12849U 81094B 25298.81991591 .00001708 00000-0 14906-3 0 9994

TLE line 2: 2 12849 82.4902 337.0198 0873515 102.8670 267.1420 13.57421808154422

Live tracking on map

Real-time ground track for satellite SL-14 R/B.

In-orbit conjunctions

A list of the most updated potential collisions computed for object SL-14 R/B.

Target Orbit TCA Probability of collision Miss distance Type
FENGYUN 1C DEB SSO 2025-10-28 09:40:33 0.0001092757 347.0 (m) DEBRIS
DELTA 1 DEB SSO 2025-03-10 12:21:29 0.0001377489 248.0 (m) DEBRIS
FENGYUN 1C DEB SSO 2025-03-02 03:47:41 0.0006974156 10.0 (m) DEBRIS
COSMOS 2279 LEO 2024-06-18 07:16:56 0.0004307019 882.0 (m) PAYLOAD

Associated space launch

Joint Soviet-French satellite dedicated to magnetospheric research

SL-14 R/B was lifted into orbit during the mission ‘Tsiklon-3 | Aureole 3’, on board a Tsiklon-3 space rocket.

The launch took place on Sept. 21, 1981, 1:10 p.m. from 32/1.

For more information about the launch, click the button.

Launch to space Tsiklon-3 | Aureole 3
Tsiklon-3 | Aureole 3

Agency: N/A

Status: Launch Successful

Launch date: Sept. 21, 1981, 1:10 p.m. UTC

Rocket: Tsiklon-3

Launch pad: 32/1

Location: Plesetsk Cosmodrome, Russian Federation

...

Latest news about this satellite

There are no fresh news available about this satellite. Check back as we update our databases every day.


Newsletter sign-up

Weekly statistics, charts and insights to help you stay on top of the space industry.